User: anonymous   Login
Location: Proctor
(47.8934°N, 114.3048°W)
Time: 06:48:15
(UTC+00:00)
Language:

METEOR M2 - Orbit

View from above orbital plane
View from above orbital plane
View from above satellite
View from above satellite

Ground track
Ground track

The orbit data is extracted from the following two-line orbital elements,

1 40069U 14037A   22178.88734686 -.00000007  00000-0  15914-4 0  9996
2 40069  98.4305 196.2158 0004595 300.4283  59.6446 14.20711578413340
Epoch (UTC): 27 June 2022 21:17:46
Eccentricity: 0.0004595
inclination: 98.4305°
perigee height: 819 km
apogee height: 826 km
right ascension of ascending node: 196.2158°
argument of perigee: 300.4283°
revolutions per day: 14.20711578
mean anomaly at epoch: 59.6446°
orbit number at epoch: 41334

The dashed part of the orbit path shows where the satellite is in the earth's shadow,  

DLR